Regional Weather Roundup
Issued by NWS Kansas City/Pleasant Hill, MO

Home | Current Version | Previous Version | Graphics & Text | Print | Product List | Glossary Off
Versions: 1 2 3 4 5 6 7 8 9 10 11 12 13 14 15 16 17 18 19 20 21 22 23 24 25 26 27 28 29 30 31 32 33 34 35 36 37 38 39 40 41 42 43 44 45 46 47 48 49 50

000
ASUS43 KEAX 210310
RWREAX

WEATHER ROUNDUP FOR EASTERN KANSAS AND NORTHWEST MISSOURI
NATIONAL WEATHER SERVICE KANSAS CITY/PLEASANT HILL MO
900 PM CST MON NOV 20 2017

KSZ040-057-103>105-MOZ028-029-037-043-210400-
...KANSAS CITY METROPOLITAN AREA...

CITY           SKY/WX    TMP DP  RH WIND       PRES   REMARKS
K.C. INTL      CLEAR     54  29  38 SW22G30   29.73S
K.C. DOWNTOWN  PTCLDY    56  30  37 SW20G29   29.74F
LEES SUMMIT    CLOUDY    52  31  44 S17       29.77F
OLATHE - IXD   PTCLDY    49  32  52 S10       29.78S
OLATHE - OJC   CLOUDY    50  31  48 S12       29.78S
LAWRENCE       CLEAR     53  30  41 VRB6      29.76F

$$

MOZ001>008-011>017-020>025-030>033-038>040-044>046-053-054-210400-
...NORTHERN AND CENTRAL MISSOURI...

CITY           SKY/WX    TMP DP  RH WIND       PRES   REMARKS
ST. JOSEPH     CLEAR     54  29  38 SW16      29.71R
MOSBY          PTCLDY    54  28  37 SW9       29.75S
WARRENSBURG    CLOUDY    54  30  40 S16G24    29.78F
WHITEMAN AFB   CLEAR     52  30  43 SW17G24   29.76S
CLINTON        CLOUDY    54  30  40 MISG      29.84F
SEDALIA        CLOUDY    54  32  43 SW17G25   29.81F
WARSAW         NOT AVBL
CHILLICOTHE      N/A     52  32  46 S10       29.75S
KIRKSVILLE     CLOUDY    54  31  41 SW15      29.75S

$$

MOZ041-047>049-056>058-063>065-088>090-097-210400-
...EASTERN AND SOUTHERN MISSOURI...

CITY           SKY/WX    TMP DP  RH WIND       PRES   REMARKS
ST. LOUIS INTL CLOUDY    49  28  44 S9        29.88S
SPIRIT OF STL  CLOUDY    50  28  42 S8G17     29.86F
COLUMBIA       CLOUDY    48  29  47 S9        29.84R
JEFFERSON CITY CLOUDY    54  27  35 S7        29.86R
ROLLA          CLOUDY    49  28  44 S16       29.88S
OSAGE BEACH    PTCLDY    51  29  42 S10       29.88S
SPRINGFIELD    PTCLDY    49  31  49 S10       29.90R
BRANSON        CLOUDY    46  28  49 CALM      29.94F
JOPLIN         CLOUDY    54  31  41 S15G30    29.88R
WEST PLAINS    CLOUDY    46  26  45 S8        29.95F

$$

IAZ060-094-KSZ022-034>040-054-083-096-NEZ052-066-093-210400-
...KANSAS...SOUTHEAST NEBRASKA AND IOWA...

CITY           SKY/WX    TMP DP  RH WIND       PRES   REMARKS
TOPEKA         CLOUDY    57  29  34 S12       29.74F
MANHATTAN      CLOUDY    54  28  36 SW17G26   29.72S
EMPORIA        CLOUDY    52  29  41 S12G22    29.79F
CHANUTE        CLOUDY    54  29  38 S15       29.85R
WICHITA        CLOUDY    51  31  46 S13       29.82R
OMAHA          CLOUDY    45  28  51 SE6       29.66R
LINCOLN        CLEAR     47  27  45 SW5       29.69R
FALLS CITY     CLEAR     54  27  35 SW15G22   29.68F
LAMONI         PTCLDY    51  31  46 SW14      29.68F
DES MOINES     PTCLDY    47  30  51 SW8       29.65R

$$




USA.gov is the U.S. government's official web portal to all federal, state and local government web resources and services.